STARLINK-31856, 59960

Orbit data source: Space-Track

STARLINK-31856, 59960 is a payload satellite owned by SpaceX/Seattle (US) in LEO that was launched on Wed, 05 Jun 2024 UTC via an FALCON 9 launch vehicle from the Air Force Eastern Test Range (AFETR). Payload-class satellites include a variety of spacecraft equipped with specific instruments for various scientific and technological missions. These include communications satellites like Starlink; space stations such as the ISS; scientific satellites like the Hubble; Earth observation satellites from companies like Planet Labs, Umbra, and HawkEye 360; GPS; miniature CubeSats for education and research; and military/defense satellites.

Loading next visibility...
Identifier
59960, 2024-107R
Orbit
LEO
Country
Flag of USUS
Related business
Manufacturer
SpaceX/Seattle
Mission
Operational Commercial Communications
Bus & Motor
STARLINK V2M, Unknown motor
Mass
730 kg wet, ~700 kg dry
Launch date (UTC)
2024-06-05 (2 years ago)
Launch vehicle
FALCON 9
Launch site
Air Force Eastern Test Range (AFETR)
Object type
Payload
Rocket body
Debris
Shape & HBR
Box + 2 Pan, 17.7 m
Radar Cross Section
33.884 m², Large (>1 m²)

Expand to show TLE details & history
Last TLE update: 3 days ago

TLE from 3 days ago
0 STARLINK-31856
1 59960U 24107R   26170.71054901  .00001746  00000-0  62789-4 0  9990
2 59960  53.1597 311.1418 0001147 105.6424 254.4705 15.34402066115426
Epoch: 2026-06-19T17:03Z
TLE epoch observation values (Epoch: 2026-06-19T17:03:11.434Z)
Latitude
-0.00004°
Longitude
147.40852°
Altitude
463.809 km
Speed
7.636 km/s
True Right ascension
20h 44m 34s
True Declination
0° 00' 00"
Sunlit
Object was in full shadow at epoch
Visualization orbit readout
Latitude
Unknown
Longitude
Unknown
Altitude
Unknown
Speed
Unknown
Apparent Right ascension
Unknown
Apparent Declination
Unknown
Sunlit
N/A
Visualization observer readout
Local Sidereal Time
21:42:54
Azimuth
Unknown
Elevation
Unknown
Doppler factor
Unknown
Orbital elements
Apogee altitude
463.739 km
Perigee altitude
462.169 km
Semi-major axis
6,841.091 km
Eccentricity
0.00011
Inclination
53.1597°
RAAN
311.1418°
Arg. of periapsis
105.6424°
True anomaly
254.45784°
Mean anomaly
254.4705°
Eccentric anomaly
254.46417°
Mean motion
3.83579 °/min
Orbital period
93.85 mins
BSTAR
0.000062789
Loading maneuver chart data...
Computing Atmospheric mass density...
Loading historical data...
Loading historical data...
Loading historical data...
Loading historical data...
Loading historical data...
Loading historical data...
Loading historical data...

Documentation

Showing up to 5 results
|